Location: Holbach
(51.5399°N, 10.6036°E)
Time: 15:56:17
(UTC+00:00)

Tsikada Rocket - Pass Details

Date: 18 September 2020
Orbit: 957 x 1010 km, 82.9° (Epoch: 21 October)

Event Time Altitude Azimuth Distance (km) Brightness Sun altitude
Rises 17:52:56 0° 348° (NNW) 3,659 7.3 -5.3°
Reaches altitude 10° 17:55:28 10° 346° (NNW) 2,705 6.7 -5.6°
Maximum altitude 18:01:35 68° 265° (W) 1,031 4.5 -6.6°
Drops below altitude 10° 18:07:40 10° 184° (S) 2,688 6.2 -7.5°
Sets 18:10:09 0° 182° (S) 3,633 6.9 -7.9°
